Flag for Norway Weather past 2 weeks in Fevik, Norway

Now
55 °F

Cool.


Feels Like: 50 °F
Forecast: 56 / 58 °F
Wind: 16 mph from Southwest

Location: Torungen Fyr

Current Time: Oct 26, 2014 at 5:39:23 AM

Latest Report: Oct 26, 2014 at 5:00 AM


Visibility: N/A

Pressure: 29.81 "Hg

Humidity: 87%

Dew point: 51 °F

Location of FevikLocation

Historic Weather in Fevik — Graph

°F

Fevik temperature yesterday

Maximum temperature yesterday: 54 °F (at 11:00 PM)
Minimum temperature yesterday: 49 °F (at 9:00 AM)
Average temperature yesterday: 52 °F

Past Weeks' High & Low Weather Summary

 TemperatureHumidityPressure
High59 °F (Oct 20, 3:00 PM)100% (Oct 18, 12:00 AM)30.06 "Hg (Oct 18, 12:00 AM)
Low39 °F (Oct 16, 11:00 PM)62% (Oct 12, 4:00 PM)29.29 "Hg (Oct 21, 7:00 PM)
Average51 °F90%29.79 "Hg
* Reported Oct 11 5:00 AM — Oct 26 4:00 AM, Fevik, Weather by CustomWeather, © 2014

Note: Actual official high and low records may vary slightly from our data, if they occured in-between our weather recording intervals... More about our weather records

Advertising

Fevik weather history for previous 24 hours

 ConditionsComfort  
Time TempWeatherWind HumidityBarometerVisibility
4:00 AM
Oct 26
55 °FCool.16 mph86%29.81 "HgN/A
3:00 AM54 °FCool.17 mph87%29.81 "HgN/A
2:00 AM54 °FCool.15 mph84%29.83 "HgN/A
2:00 AM54 °FCool.15 mph87%29.83 "HgN/A
1:00 AM54 °FCool.17 mph87%29.83 "HgN/A
12:00 AM55 °FCool.17 mph84%29.83 "HgN/A
11:00 PM
Oct 25
54 °FCool.17 mph84%29.84 "HgN/A
10:00 PM54 °FCool.15 mph84%29.85 "HgN/A
9:00 PM54 °FCool.14 mph87%29.85 "HgN/A
8:00 PM54 °FCool.15 mph84%29.85 "HgN/A
7:00 PM54 °FCool.15 mph84%29.85 "HgN/A
6:00 PM53 °FCool.12 mph85%29.85 "HgN/A
5:00 PM54 °FCool.14 mph83%29.85 "HgN/A
4:00 PM54 °FCool.12 mph81%29.85 "HgN/A
3:00 PM54 °FCool.12 mph79%29.85 "HgN/A
2:00 PM54 °FCool.9 mph81%29.85 "HgN/A
1:00 PM53 °FCool.9 mph81%29.86 "HgN/A
12:00 PM52 °FCool.10 mph88%29.85 "HgN/A
11:00 AM50 °FCool.1 mph96%29.85 "HgN/A
10:00 AM49 °FCool.2 mph96%29.85 "HgN/A
9:00 AM49 °FCool.3 mph95%29.83 "HgN/A
8:00 AM50 °FCool.5 mph96%29.81 "HgN/A
7:00 AM51 °FCool.5 mph95%29.80 "HgN/A
6:00 AM50 °FCool.3 mph96%29.79 "HgN/A
5:00 AM51 °FCool.6 mph97%29.79 "HgN/A
Weather by CustomWeather, © 2014

See weather overviewHow to use our weather pages